Tracking 35275 objects as of 8-Sep-2026
HD Live streaming from Space Station
objects crossing your sky now

ORBCOMM FM 16 DEB


ORBCOMM FM 16 DEB is no longer on orbit


NORAD ID: 44017
Int'l Code: 1998-046L
Launch date: August 2, 1998
Source: ORBCOMM (ORB)
Launch site: Pegasus launched from Eastern Range Air Space (ERAS)
Decay date: 2019-08-26

Note: This is SATELLITE DEBRIS
Your satellite tracking list
Your tracking list is empty




NASA's NSSDC Master Catalog

Two Line Element Set (TLE):
1 44017U 98046L   19223.38825810  .01900627  00000-0  48278-1 0  9990
2 44017  45.4547 211.8426 0213227 257.7852  99.9080 15.16458212 29263
Source of the keplerian elements: AFSPC